{"data":{"norad_id":49285,"intl_designator":"2021-090G","name":"ONEWEB-0359","alt_names":[],"object_type":"PAYLOAD","status":"ACTIVE","operator":null,"country":"UK","launch_date":"2021-10-14","launch_site_code":"VOSTO","launch_vehicle":null,"mission":null,"orbit_class":"UNKNOWN","rcs_meters":null,"size_class":null,"mass_kg":null,"dimensions":null,"purposes":["comms"],"wikipedia_slug":null,"has_3d_model":false,"image_url":null,"decayed_at":null,"tle_current":{"epoch":"2026-05-24T22:05:00.921120Z","epoch_age_seconds":82009,"freshness":"FRESH","line1":"1 49285U 21090G   26144.92014955 -.00000054  00000+0 -16422-3 0  9990","line2":"2 49285  87.9175 279.0734 0002081 106.1297 254.0066 13.20771207227460","mean_motion":13.20771207,"eccentricity":0.0002081,"inclination_deg":87.9175,"raan_deg":279.0734,"arg_perigee_deg":106.1297,"mean_anomaly_deg":254.0066,"bstar":-0.00016422,"rev_number":22746,"period_min":109.02721019114,"perigee_km":1180.202467088,"apogee_km":1183.3489027474,"semimajor_km":7559.9126849177,"source":"CELESTRAK","updated_at":"2026-05-25T13:38:22.520350Z"}}}